TIANZHOU 10

导读

**天舟十号(TIANZHOU 10,NORAD编号69049)是中国第十艘天舟系列货运飞船,于北京时间2026年5月11日在海南文昌航天发射场由长征七号运载火箭成功发射,任务恰逢文昌首飞十周年,被称为“满分十分”的“三十相逢”任务。** 飞船共携带约6.2吨物资,包含新款舱外航天服、升级版太空跑步机,还搭载了斑马鱼胚胎、小鼠胚胎等科学载荷,以及香港科技大学温室气体监测项目,将助力空间站科研和全球气候变化研究。本次任务计划对接空间站停靠一年,是天舟飞船计划停留最长的一次,将为神舟二十三号、二十四号乘组提供补给支持。

基本信息
目录编号:
69049
目录名称:
TIANZHOU 10
国际标识:
2026-102A
轨道中心:
EARTH
卫星名称:
TIANZHOU 10
卫星全名:
TIANZHOU 10
卫星状态:
在轨 (已飞行38 天)
发射日期:
2026-05-11 UTC
国别 :
中国 (CN)
星等 :
--
轨道信息
数据来源 国际轨道数据
星历时间: 2026-06-18T12:37:34+0800
12小时前
查看轨道信息
半长轴: 6763.335km
偏心率: 0.0007398
轨道倾角: 41.470°
近地点辐角 85.501°
升交点赤经 315.882°
平近点角 274.667°
近地点: 380.194km
远地点: 390.202km
周期: 92.257分钟
每日圈数: 15.608509
详细信息
使用方式:
暂无
2D轨道图
3D轨道图
轨道高度分析图
轨道倾角分析图
轨道综合分析图
查看轨道综合分析图